Wind_Speed
10 9 8 7 6 4 3 1 1 2 4 5 7 7 8 9 10 10 10 10 11 11 10 10 10 10 11 11 11 11 12 12 12 13 12 12 11 11 11 10 10 9 9
10 9 9 8 7 5 3 2 2 3 4 6 7 7 8 9 9 10 9 9 9 9 9 9 9 10 10 10 11 11 11 11 12 13 13 12 13 13 12 11 10 10 9
10 10 10 9 8 6 5 4 4 5 5 6 7 7 8 9 9 9 9 9 8 8 8 8 8 9 9 10 10 10 11 11 12 13 14 14 13 13 12 12 11 11 10
11 11 11 10 10 9 8 7 7 7 7 7 7 7 8 9 9 9 9 8 8 8 7 7 7 8 8 9 9 10 10 10 11 12 13 14 14 14 13 13 12 11 10
10 11 11 11 11 10 9 9 9 8 8 8 7 7 7 8 8 8 7 7 7 7 7 6 6 6 7 7 8 9 10 10 10 11 12 13 14 14 14 14 14 12 11
10 10 11 11 10 10 9 9 9 9 9 9 8 8 8 8 7 7 6 6 6 5 5 5 5 5 5 6 6 7 7 8 9 10 10 11 12 13 14 14 14 12 12
10 10 11 11 11 11 10 9 9 9 9 9 9 9 9 8 7 7 6 5 5 5 4 4 4 4 5 5 5 6 6 7 7 9 10 11 11 11 12 13 13 13 12
10 10 11 11 11 11 11 11 10 10 9 9 9 9 9 8 7 6 6 5 4 5 4 3 3 4 4 5 5 5 6 5 5 7 8 9 10 10 10 10 11 12 13
9 10 10 10 11 11 11 11 11 10 10 9 9 9 8 7 6 6 5 4 4 3 3 3 2 3 3 4 5 5 4 4 4 6 7 8 8 9 9 9 10 11 12
8 9 10 10 10 10 11 10 10 10 10 9 9 8 7 7 6 5 4 3 3 3 2 1 1 2 2 3 4 4 4 4 3 4 5 6 7 8 8 9 10 11 11
7 8 9 9 10 10 10 10 10 10 9 9 9 8 7 7 6 5 4 3 3 2 2 1 1 1 0 1 1 2 3 3 4 4 5 6 7 7 8 9 10 10 11
6 7 8 8 9 9 10 10 10 9 9 9 9 8 8 7 6 6 4 3 3 2 1 1 0 0 1 2 3 3 3 4 4 5 5 6 7 7 8 9 10 11 11
5 6 6 7 8 8 8 8 9 9 8 8 8 8 7 6 6 5 5 4 3 2 1 1 2 2 3 3 4 3 3 3 4 5 6 7 8 9 9 10 10 11 12
4 5 5 6 7 7 7 7 7 7 7 7 7 7 7 6 6 5 4 3 3 2 1 2 2 3 3 3 4 4 5 5 6 6 7 8 9 10 10 11 11 12 13
3 4 4 5 5 6 6 6 6 6 6 6 6 6 6 6 6 5 5 4 3 3 3 2 3 3 4 4 5 6 7 7 8 8 9 10 10 11 12 13 13 14 15
3 3 3 4 4 5 5 5 6 5 5 5 5 5 6 6 6 5 5 4 4 4 4 4 4 5 6 6 6 6 7 8 9 9 9 10 11 12 13 14 15 16 16
3 3 3 3 3 3 3 3 4 4 4 4 5 4 5 5 5 5 5 5 5 5 5 5 6 7 7 8 8 8 8 9 10 10 11 11 12 13 15 16 17 17 18
4 3 3 2 2 2 2 2 3 3 3 3 4 4 4 5 5 5 5 5 6 6 6 7 8 8 9 9 9 9 10 11 12 12 13 13 14 15 17 18 20 21 21
4 4 3 2 1 1 1 1 1 2 2 3 3 4 4 5 5 6 6 6 7 7 8 9 9 9 10 9 10 11 12 13 14 15 15 16 17 18 19 20 22 23 24
6 5 4 3 3 2 2 2 2 2 3 3 4 4 5 6 6 7 7 7 8 9 10 10 11 11 11 12 12 14 15 16 16 17 18 19 20 21 22 23 24 26 27
7 6 6 5 5 4 4 4 4 4 5 5 5 5 6 7 7 8 9 9 10 10 11 12 13 13 14 14 15 16 17 18 19 20 21 22 22 23 24 25 27 28 30
9 8 8 7 6 6 6 6 6 6 6 7 7 7 8 9 9 10 11 11 12 13 14 15 15 16 17 17 18 19 20 21 22 23 24 24 26 27 28 29 30 31 33
11 10 10 9 9 9 8 8 8 8 8 9 9 9 10 11 11 12 13 13 14 15 16 17 18 18 19 20 20 21 22 23 24 25 26 26 28 29 31 32 34 35 36
13 12 11 11 10 10 10 9 10 10 10 11 11 12 13 13 14 14 15 15 16 17 18 18 19 20 21 22 23 24 25 26 27 28 29 29 30 32 34 35 36 38 39
14 13 13 12 12 12 12 12 12 12 12 12 13 14 15 15 16 17 17 18 19 19 20 21 22 22 24 25 26 27 28 29 29 30 31 33 34 35 36 38 39 40 41
15 15 14 14 14 14 14 14 14 14 14 15 15 16 17 17 18 19 20 21 21 22 23 24 24 25 26 28 29 30 31 31 33 33 34 36 37 38 38 39 41 42 43
Wind_Direction
19 20 19 18 18 15 13 25 124 175 179 179 182 182 182 183 186 188 190 193 197 198 199 200 204 208 212 216 219 219 222 225 227 227 226 229 229 227 228 232 235 243 249
25 27 25 26 26 28 32 55 102 127 150 163 169 172 174 176 180 182 184 185 190 195 194 195 202 207 213 216 218 221 224 228 229 227 225 228 229 228 229 233 237 243 243
33 36 36 36 37 44 54 72 95 109 130 147 156 163 167 169 173 176 180 183 188 190 189 192 201 208 214 218 222 225 227 230 230 229 228 228 230 229 231 234 236 241 241
39 41 43 46 51 58 68 80 92 101 115 132 145 154 159 163 168 174 177 181 187 191 192 192 200 207 213 216 221 226 228 231 234 233 229 232 234 231 232 234 237 241 241
43 45 46 51 57 64 73 83 92 99 107 116 130 140 147 153 160 166 172 179 186 189 192 191 195 205 209 217 222 227 228 233 238 237 236 235 234 234 237 240 241 240 238
46 48 51 56 59 68 78 86 93 100 105 110 117 125 133 141 147 154 163 172 181 184 179 179 195 206 213 218 224 231 231 235 238 238 236 238 236 238 240 243 239 236 237
49 53 56 59 62 68 77 85 92 99 104 107 112 118 124 128 133 140 148 159 174 182 180 184 196 203 207 213 224 234 230 231 233 236 237 238 238 240 239 237 238 235 237
52 57 59 62 66 70 76 84 92 97 102 106 111 114 118 121 122 126 132 141 158 169 177 188 194 199 208 215 226 230 230 232 237 241 242 241 237 238 236 237 238 238 236
56 58 61 66 69 73 78 85 92 95 98 103 108 112 114 115 117 119 117 124 129 138 157 186 206 204 209 213 218 230 235 236 245 250 247 242 237 238 239 237 238 241 239
61 62 66 70 72 75 79 83 90 95 98 100 105 108 110 109 112 115 112 113 122 136 152 175 207 209 219 228 228 241 242 241 242 243 239 233 232 236 240 240 239 240 243
65 67 72 75 75 78 80 82 85 90 96 98 99 98 101 101 103 108 111 116 117 121 131 143 147 171 186 291 276 264 258 249 235 234 233 235 236 239 242 243 243 247 252
69 71 77 77 79 80 81 85 86 89 93 93 92 91 93 94 92 96 102 104 96 94 99 90 44 350 322 302 289 292 276 271 249 234 236 239 245 249 250 252 254 254 258
75 75 80 80 79 80 83 85 86 87 89 90 87 87 88 86 83 89 91 93 93 88 77 20 339 324 325 319 305 305 297 287 273 257 248 248 250 253 258 260 259 259 259
90 86 88 86 82 82 83 85 87 87 86 84 82 81 76 76 72 74 71 76 76 71 45 360 346 340 330 317 307 307 301 296 282 274 267 264 262 258 258 261 264 266 266
109 100 98 95 91 86 84 82 83 82 80 77 75 69 63 61 60 59 55 52 49 44 22 358 346 340 335 317 313 311 307 303 292 285 278 273 271 270 268 268 269 271 272
132 115 105 100 98 90 84 80 80 80 75 69 62 60 54 54 49 44 38 32 26 13 1 350 345 338 338 329 318 314 311 306 299 294 287 277 274 274 273 274 275 276 276
154 140 125 116 103 92 86 81 79 75 65 59 56 51 43 40 32 28 22 19 10 0 352 345 338 334 328 324 322 318 316 314 308 300 296 289 284 282 280 280 281 282 283
177 166 157 141 124 101 85 75 63 61 56 46 36 31 28 22 15 10 7 4 360 357 350 342 336 332 328 322 320 316 313 309 310 308 303 297 293 288 286 285 284 284 284
201 194 188 193 196 191 176 119 51 40 26 15 13 13 8 2 358 356 355 350 347 346 342 337 332 328 324 321 317 315 314 310 306 306 303 299 294 290 288 288 288 288 287
218 219 220 227 235 240 243 248 278 310 320 335 340 343 342 340 338 338 337 334 333 332 330 330 325 323 322 320 316 315 314 311 307 304 302 299 296 292 290 289 289 289 288
224 228 232 239 244 250 253 258 268 287 299 312 317 318 321 322 322 322 322 320 320 321 321 321 318 316 316 314 311 310 310 309 307 305 303 301 298 295 293 291 291 290 289
229 232 239 245 250 255 256 263 270 282 292 301 301 304 309 313 315 315 317 315 315 315 315 315 312 312 311 310 308 307 307 307 306 304 303 302 299 297 295 295 294 293 291
235 239 243 248 252 256 260 264 272 280 288 295 298 300 303 306 307 308 310 311 311 310 310 310 310 309 308 308 308 307 306 306 305 305 304 303 301 300 298 297 296 295 293
238 240 244 249 252 255 259 265 272 278 284 290 295 298 301 302 304 305 306 308 307 307 308 308 308 307 306 307 308 308 306 306 305 305 304 304 302 301 300 299 297 296 294
239 243 247 251 255 259 263 267 272 277 282 286 291 295 298 300 302 303 304 305 304 304 305 306 306 305 305 306 306 307 306 305 304 304 304 304 303 302 301 300 298 297 295
243 247 251 254 257 261 265 269 273 278 282 286 291 294 296 298 300 301 302 303 302 302 303 304 303 303 304 305 306 307 307 305 304 304 304 304 303 302 301 301 299 298 296
Height
5875 5873 5870 5868 5867 5865 5864 5863 5863 5863 5863 5864 5865 5865 5867 5868 5869 5871 5873 5874 5875 5877 5878 5879 5880 5881 5882 5883 5884 5885 5886 5887 5887 5888 5889 5890 5891 5891 5892 5892 5892 5892 5892
5875 5873 5871 5869 5867 5865 5864 5863 5863 5863 5863 5864 5864 5866 5867 5868 5870 5871 5873 5874 5875 5876 5877 5878 5879 5880 5881 5882 5883 5884 5884 5885 5886 5886 5887 5888 5889 5890 5890 5891 5891 5891 5891
5876 5873 5871 5869 5867 5865 5864 5863 5863 5863 5863 5864 5865 5866 5867 5869 5870 5871 5873 5874 5875 5876 5877 5878 5879 5879 5880 5881 5882 5882 5883 5884 5884 5885 5886 5886 5887 5888 5889 5889 5890 5890 5890
5877 5874 5872 5870 5868 5866 5865 5865 5864 5864 5864 5865 5866 5867 5868 5869 5871 5872 5873 5874 5875 5876 5876 5877 5878 5879 5879 5880 5880 5881 5881 5882 5883 5883 5883 5884 5885 5886 5886 5887 5888 5888 5889
5878 5876 5873 5871 5869 5868 5867 5866 5866 5866 5866 5866 5867 5868 5869 5870 5871 5872 5873 5874 5875 5876 5876 5877 5878 5878 5879 5879 5879 5880 5880 5881 5881 5881 5881 5882 5883 5883 5884 5885 5885 5886 5887
5879 5877 5875 5873 5871 5870 5869 5868 5868 5868 5868 5868 5869 5870 5870 5871 5872 5873 5874 5875 5875 5876 5876 5877 5878 5878 5878 5878 5879 5879 5879 5879 5880 5879 5880 5880 5880 5881 5881 5882 5883 5884 5885
5881 5878 5877 5875 5873 5872 5871 5870 5870 5870 5870 5870 5871 5871 5872 5873 5873 5874 5875 5876 5876 5876 5877 5877 5878 5878 5878 5878 5878 5878 5878 5878 5878 5878 5878 5878 5878 5878 5878 5878 5879 5881 5883
5882 5880 5879 5877 5876 5874 5873 5872 5872 5872 5872 5872 5873 5873 5874 5875 5875 5875 5876 5876 5876 5877 5877 5877 5877 5878 5878 5878 5878 5878 5877 5876 5876 5875 5875 5875 5876 5876 5875 5875 5877 5879 5881
5884 5882 5880 5879 5878 5877 5876 5875 5874 5874 5874 5875 5875 5875 5876 5876 5876 5876 5876 5877 5877 5877 5877 5877 5877 5877 5877 5877 5877 5876 5876 5875 5874 5873 5873 5873 5874 5874 5874 5874 5875 5877 5879
5885 5884 5882 5881 5880 5879 5878 5878 5877 5877 5877 5877 5877 5877 5877 5877 5878 5878 5878 5878 5878 5878 5878 5877 5877 5877 5876 5876 5876 5875 5875 5875 5873 5872 5872 5872 5873 5873 5873 5874 5875 5876 5878
5887 5886 5885 5883 5883 5882 5881 5880 5880 5879 5879 5879 5879 5879 5879 5879 5879 5879 5879 5879 5879 5879 5879 5878 5877 5877 5876 5876 5875 5875 5874 5874 5873 5872 5872 5872 5873 5874 5874 5874 5875 5876 5876
5889 5887 5886 5886 5885 5884 5883 5883 5882 5882 5881 5881 5881 5881 5880 5880 5880 5880 5880 5880 5880 5880 5879 5878 5878 5877 5876 5876 5875 5874 5874 5873 5873 5872 5872 5872 5873 5873 5873 5874 5874 5875 5875
5890 5889 5888 5888 5887 5886 5885 5885 5885 5884 5884 5883 5883 5883 5882 5882 5882 5881 5881 5881 5881 5880 5880 5879 5878 5877 5876 5875 5874 5874 5873 5872 5872 5871 5871 5871 5872 5872 5872 5872 5873 5873 5873
5891 5890 5890 5889 5889 5888 5887 5887 5887 5886 5886 5885 5885 5885 5884 5883 5883 5882 5882 5882 5881 5881 5880 5879 5878 5877 5876 5875 5874 5873 5872 5872 5871 5870 5870 5870 5870 5870 5870 5870 5870 5870 5870
5892 5892 5891 5891 5890 5890 5889 5889 5888 5888 5887 5887 5887 5886 5886 5885 5884 5883 5883 5882 5882 5881 5880 5879 5878 5877 5876 5874 5873 5872 5871 5870 5869 5869 5868 5868 5868 5868 5868 5868 5868 5868 5867
5893 5893 5892 5892 5892 5891 5891 5890 5890 5889 5889 5888 5888 5887 5887 5886 5885 5885 5884 5883 5882 5882 5880 5879 5878 5877 5875 5874 5873 5872 5870 5869 5867 5866 5865 5865 5865 5865 5865 5865 5865 5864 5864
5893 5893 5893 5893 5893 5892 5892 5892 5891 5891 5890 5890 5889 5888 5888 5887 5886 5885 5884 5883 5882 5881 5880 5879 5877 5876 5875 5873 5872 5870 5869 5867 5866 5864 5863 5862 5862 5861 5861 5861 5861 5861 5860
5894 5894 5894 5894 5893 5893 5893 5892 5892 5891 5891 5890 5890 5889 5888 5888 5887 5886 5885 5883 5882 5881 5880 5878 5877 5875 5874 5872 5870 5869 5867 5865 5864 5862 5860 5859 5858 5858 5857 5857 5857 5856 5855
5894 5894 5894 5894 5894 5893 5893 5893 5892 5892 5892 5891 5890 5889 5889 5888 5887 5886 5884 5883 5882 5880 5879 5877 5876 5874 5872 5871 5869 5867 5865 5863 5861 5859 5857 5856 5854 5853 5853 5852 5852 5851 5850
5893 5893 5893 5893 5893 5893 5893 5893 5892 5892 5892 5891 5890 5889 5888 5887 5886 5885 5884 5883 5881 5880 5878 5876 5874 5873 5871 5869 5867 5865 5863 5860 5858 5856 5853 5851 5850 5848 5848 5847 5846 5844 5843
5892 5892 5892 5892 5892 5892 5892 5892 5892 5891 5891 5890 5889 5889 5888 5887 5885 5884 5883 5881 5880 5878 5877 5875 5873 5870 5868 5866 5864 5862 5859 5857 5854 5851 5849 5846 5844 5843 5842 5840 5839 5837 5835
5890 5890 5891 5891 5891 5891 5891 5891 5891 5890 5890 5889 5888 5887 5886 5885 5884 5883 5881 5879 5878 5876 5874 5872 5870 5868 5865 5863 5861 5858 5855 5853 5850 5847 5844 5841 5839 5837 5835 5833 5831 5829 5827
5888 5888 5889 5889 5889 5889 5889 5889 5889 5889 5888 5887 5886 5885 5884 5883 5882 5880 5879 5877 5875 5873 5871 5869 5867 5864 5862 5859 5857 5854 5851 5848 5845 5842 5839 5835 5832 5830 5827 5824 5822 5820 5817
5885 5886 5886 5886 5887 5887 5887 5887 5887 5886 5886 5885 5884 5883 5882 5881 5879 5877 5876 5874 5872 5869 5867 5865 5862 5860 5857 5854 5852 5849 5845 5842 5839 5835 5832 5829 5825 5822 5819 5816 5812 5809 5806
5882 5883 5883 5884 5884 5884 5884 5884 5884 5883 5883 5882 5881 5880 5879 5877 5876 5874 5872 5870 5868 5865 5863 5860 5857 5854 5852 5849 5846 5843 5839 5836 5832 5828 5825 5821 5817 5814 5810 5806 5802 5798 5794
5878 5879 5880 5880 5881 5881 5881 5881 5880 5880 5879 5878 5877 5876 5874 5873 5871 5869 5867 5865 5863 5860 5858 5855 5852 5849 5846 5842 5839 5835 5832 5828 5824 5820 5816 5812 5808 5804 5801 5796 5791 5786 5782